Tracking 31027 objects as of 19-Jul-2025
HD Live streaming from Space Station
objects crossing your sky now

OBJECT B

Track OBJECT B now!
10-day predictions


NORAD ID: 61180
Int'l Code: 2024-166B
Perigee: 346.1 km
Apogee: 355.7 km
Inclination: 96.7 °
Period: 91.4 minutes
Semi major axis: 6721 km
RCS: Unknown
Launch date: September 17, 2024
Source: Commonwealth of Independent States (former USSR) (CIS)
Launch site: PLESETSK MISSILE AND SPACE COMPLEX (PKMTR)

Note: This is SATELLITE DEBRIS
Your satellite tracking list
CZ-2C R/B
Track 1 satellite(s)




NASA's NSSDC Master Catalog

Two Line Element Set (TLE):
1 61180U 24166B   25199.87301219  .00024706  00000-0  16484-3 0  9997
2 61180  96.7207  97.5438 0007179 115.4309 244.7701 15.75310987 48263
Source of the keplerian elements: AFSPC